Flag for Netherlands Weather past 2 weeks in Ede, Netherlands

39 °F

Drizzle. Mostly cloudy.

Feels Like: 31 °F
Forecast: 46 / 51 °F
Wind: 15 mph from South

Location: Deelen

Current Time: Nov 28, 2015 at 2:29:18 AM

Latest Report: Nov 28, 2015 at 1:55 AM

Visibility: 3 mi

Pressure: 29.65 "Hg

Humidity: 93%

Dew point: 37 °F

Location of EdeLocation

Historic Weather in Ede — Graph


Ede temperature yesterday

Maximum temperature yesterday: 43 °F (at 1:55 PM)
Minimum temperature yesterday: 32 °F (at 12:25 AM)
Average temperature yesterday: 39 °F

Past Weeks' High & Low Weather Summary

High59 °F (Nov 17, 8:25 PM)100% (Nov 14, 6:25 AM)30.21 "Hg (Nov 14, 6:25 AM)
Low27 °F (Nov 23, 8:25 AM)55% (Nov 13, 1:55 PM)29.33 "Hg (Nov 21, 6:25 AM)
Average45 °F89%29.85 "Hg
* Reported Nov 13 12:25 AM — Nov 28 12:55 AM, Ede, Weather by CustomWeather, © 2015

Note: Actual official high and low records may vary slightly from our data, if they occured in-between our weather recording intervals... More about our weather records


Ede weather history for previous 24 hours

Time TempWeatherWind HumidityBarometerVisibility
12:55 AM
Sat, Nov 28
39 °FLight rain. Mostly cloudy.15 mph93%29.68 "Hg2 mi
12:25 AM39 °FDrizzle. Low clouds.14 mph93%29.68 "Hg4 mi
11:55 PM
Fri, Nov 27
39 °FPartly cloudy.17 mph93%29.68 "HgN/A
11:25 PM39 °FDrizzle. Mostly cloudy.16 mph93%29.71 "Hg4 mi
10:55 PM41 °FMostly cloudy.17 mph87%29.71 "HgN/A
10:25 PM43 °FMostly cloudy.16 mph81%29.74 "HgN/A
9:55 PM43 °FOvercast.15 mph81%29.74 "HgN/A
9:25 PM43 °FOvercast.14 mph81%29.77 "HgN/A
8:55 PM43 °FOvercast.15 mph81%29.77 "HgN/A
8:25 PM43 °FPassing clouds.14 mph81%29.77 "HgN/A
7:55 PM43 °FOvercast.14 mph87%29.80 "HgN/A
7:25 PM43 °FMostly cloudy.12 mph87%29.80 "HgN/A
6:55 PM43 °FMostly cloudy.13 mph93%29.80 "HgN/A
6:25 PM43 °FOvercast.15 mph93%29.83 "HgN/A
5:55 PM43 °FFog.14 mph93%29.83 "Hg4 mi
5:25 PM43 °FFog.13 mph93%29.83 "Hg4 mi
4:55 PM43 °FMostly cloudy.13 mph87%29.83 "HgN/A
4:25 PM43 °FOvercast.13 mph87%29.86 "HgN/A
3:55 PM43 °FMore clouds than sun.12 mph93%29.86 "HgN/A
3:25 PM41 °FDrizzle. Broken clouds.10 mph100%29.89 "Hg4 mi
2:55 PM41 °FFog.14 mph100%29.89 "Hg3 mi
2:25 PM43 °FBroken clouds.13 mph87%29.92 "HgN/A
1:55 PM43 °FMore clouds than sun.13 mph87%29.92 "HgN/A
1:25 PM41 °FOvercast.13 mph93%29.92 "HgN/A
12:55 PM41 °FOvercast.13 mph93%29.95 "HgN/A
12:25 PM41 °FOvercast.13 mph87%29.98 "HgN/A
11:55 AM39 °FOvercast.13 mph93%29.98 "HgN/A
11:25 AM39 °FOvercast.12 mph93%30.01 "HgN/A
10:55 AM37 °FFog.10 mph100%30.01 "Hg5 mi
10:25 AM37 °FFog.9 mph100%30.01 "Hg3 mi
9:55 AM37 °FFog.10 mph100%30.01 "Hg2 mi
9:25 AM37 °FFog.12 mph100%30.04 "Hg1 mi
8:55 AM36 °FFog.12 mph100%30.04 "Hg1 mi
8:25 AM36 °FFog.10 mph100%30.04 "Hg1 mi
7:55 AM36 °FFog.9 mph100%30.04 "Hg1 mi
7:25 AM36 °FFog.8 mph100%30.04 "Hg1 mi
6:55 AM36 °FFog.10 mph100%30.04 "Hg1 mi
6:25 AM36 °FFog.10 mph100%30.07 "Hg1 mi
5:55 AM36 °FFog.10 mph100%30.07 "Hg2 mi
4:55 AM34 °FFog.7 mph100%30.07 "Hg4 mi
4:25 AM34 °FFog.7 mph100%30.09 "Hg5 mi
3:55 AM34 °FFog.6 mph100%30.09 "Hg4 mi
3:25 AM34 °FPassing clouds.5 mph100%30.09 "HgN/A
2:55 AM34 °FPassing clouds.3 mph100%30.12 "HgN/A
2:25 AM34 °FFog.2 mph93%30.12 "Hg4 mi
Weather by CustomWeather, © 2015

See weather overviewHow to use our weather pages